GAOFEN 9 05

导读 | 豆包AI

高分九号05星(GAOFEN 9 05)是中国于2020年8月23日在酒泉卫星发射中心,通过长征二号丁运载火箭成功发射的光学遥感卫星。该卫星地面像元分辨率最高可达亚米级,主要服务于国土普查、城市规划、土地确权、路网设计、农作物估产和防灾减灾等领域,能够为“一带一路”建设等国家重大战略实施提供可靠的空间信息保障,进一步完善了我国高分辨率对地观测体系。

Basic Information
目录编号:
46232
目录名称:
GAOFEN 9 05
国际标识:
2020-058A
轨道中心:
EARTH
卫星名称:
GAOFEN 9 05
卫星全名:
--
卫星状态:
在轨 (已飞行2101 天)
发射日期:
2020-08-23 UTC
国别 :
中国 (CN)
星等 :
--
Orbit Information
数据来源 国际轨道数据 AOE轨道数据
星历时间 2026-05-24T11:58:55+0800
20小时前
查看轨道信息
2026-05-22T05:00:00+0800
3天前
查看轨道信息
半长轴 6849.373km 6849.54km
偏心率 0.0008826 0.0008207
轨道倾角 97.211° 97.214°
近地点辐角 169.968° 175.449°
升交点赤经 185.094° 182.867°
平近点角 190.174° 161.987°
近地点 465.19km 465.781km
远地点 477.282km 477.025km
周期 94.023分钟 94.027分钟
每日圈数 15.315338 15.314779
Detailed Information
使用方式:
暂无
2D Orbit Map
3D Orbit Map
Orbit Altitude Analysis Chart
Orbit Inclination Analysis Chart
Orbit Comprehensive Analysis Chart
View Comprehensive Chart